Showing default

FARADAY_PHOENIX, 48924

Orbit data source: Space-Track

FARADAY_PHOENIX, 48924 is a payload satellite owned by In-Space (UK) in SSO that was launched on Wed, 30 Jun 2021 UTC via an FALCON 9 launch vehicle from the Air Force Eastern Test Range (AFETR). Payload-class satellites include a variety of spacecraft equipped with specific instruments for various scientific and technological missions. These include communications satellites like Starlink; space stations such as the ISS; scientific satellites like the Hubble; Earth observation satellites from companies like Planet Labs, Umbra, and HawkEye 360; GPS; miniature CubeSats for education and research; and military/defense satellites.

Loading next visibility...
Identifier
48924, 2021-059AX
Orbit
SSO
Country
Flag of UKUK
Related business
Manufacturer
GOMSpace
Mission
Operational Commercial Technology
Bus & Motor
CUBESAT 6U, Unknown motor
Mass
10 kg wet, ~10 kg dry
Launch date (UTC)
2021-06-30 (5 years ago)
Launch vehicle
FALCON 9
Launch site
Air Force Eastern Test Range (AFETR)
Object type
Payload
Rocket body
Debris
Shape & HBR
Box, 0.1 m
Radar Cross Section
0.080 m², Small (<0.1 m²)

Expand to show TLE details & history
Last TLE update: 8 hours ago

TLE from 8 hours ago
0 FARADAY_PHOENIX
1 48924U 21059AX  26095.46514952  .00094035  00000-0  95716-3 0  9994
2 48924  97.6899 286.2633 0006340 231.9202 128.1485 15.64816043266246
Epoch: 2026-04-05T11:09Z
TLE epoch observation values (Epoch: 2026-04-05T11:09:48.918Z)
Latitude
-0.00004°
Longitude
-74.9607°
Altitude
379.557 km
Speed
7.681 km/s
True Right ascension
19h 05m 03s
True Declination
0° 00' 00"
Sunlit
Object was in daylight at epoch
Visualization orbit readout
Latitude
Unknown
Longitude
Unknown
Altitude
Unknown
Speed
Unknown
Apparent Right ascension
Unknown
Apparent Declination
Unknown
Sunlit
N/A
Visualization observer readout
Local Sidereal Time
01:09:12
Azimuth
Unknown
Elevation
Unknown
Doppler factor
Unknown
Orbital elements
Apogee altitude
374.966 km
Perigee altitude
366.408 km
Semi-major axis
6,748.824 km
Eccentricity
0.00063
Inclination
97.6899°
RAAN
286.2633°
Arg. of periapsis
231.9202°
True anomaly
128.20561°
Mean anomaly
128.1485°
Eccentric anomaly
128.17706°
Mean motion
3.91472 °/min
Orbital period
91.96 mins
BSTAR
0.00095716
Loading maneuver chart data...
Computing Atmospheric mass density...
Loading historical data...
Loading historical data...
Loading historical data...
Loading historical data...
Loading historical data...
Loading historical data...
Loading historical data...

Documentation

Showing up to 5 results
|